Time,TemperatureF,DewpointF,PressureIn,WindDirection,WindDirectionDegrees,WindSpeedMPH,WindSpeedGustMPH,Humidity,HourlyPrecipIn,Conditions,Clouds,dailyrainin,SoftwareType,DateUTC
2013-03-04 00:00:00,61.5,39.4,29.82,SW,225,6.0,10.0,44,0.00,,,0.00,meteohub,2013-03-04 06:00:00,
2013-03-04 00:05:00,61.5,39.4,29.82,SW,225,6.0,10.0,44,0.00,,,0.00,meteohub,2013-03-04 06:05:00,
2013-03-04 00:11:00,61.2,40.3,29.81,NE,45,7.0,12.0,46,0.00,,,0.00,meteohub,2013-03-04 06:11:00,
2013-03-04 00:15:00,61.2,40.8,29.82,NW,315,7.0,13.0,47,0.00,,,0.00,meteohub,2013-03-04 06:15:00,
2013-03-04 00:21:00,61.0,41.2,29.81,WNW,293,7.0,13.0,48,0.00,,,0.00,meteohub,2013-03-04 06:21:00,
2013-03-04 00:26:00,60.6,41.4,29.81,South,180,8.0,13.0,49,0.00,,,0.00,meteohub,2013-03-04 06:26:00,
2013-03-04 00:31:00,60.4,41.7,29.81,SE,135,9.0,12.0,50,0.00,,,0.00,meteohub,2013-03-04 06:31:00,
2013-03-04 00:36:00,60.4,41.7,29.81,SE,135,8.0,12.0,50,0.00,,,0.00,meteohub,2013-03-04 06:36:00,
2013-03-04 00:41:00,60.3,41.5,29.81,SE,135,8.0,11.0,50,0.00,,,0.00,meteohub,2013-03-04 06:41:00,
2013-03-04 00:46:00,60.1,41.9,29.81,North,0,8.0,11.0,51,0.00,,,0.00,meteohub,2013-03-04 06:46:00,
2013-03-04 00:51:00,59.9,41.7,29.81,SSE,158,9.0,11.0,51,0.00,,,0.00,meteohub,2013-03-04 06:51:00,
2013-03-04 00:52:00,59.9,41.7,29.80,NE,45,11.0,11.0,51,0.00,,,0.00,meteohub,2013-03-04 06:52:00,
2013-03-04 00:57:00,59.7,41.5,29.80,SE,135,6.0,11.0,51,0.00,,,0.00,meteohub,2013-03-04 06:57:00,
2013-03-04 01:02:00,59.7,41.5,29.80,SW,225,8.0,11.0,51,0.00,,,0.00,meteohub,2013-03-04 07:02:00,
2013-03-04 01:07:00,59.5,41.4,29.80,SSW,203,9.0,14.0,51,0.00,,,0.00,meteohub,2013-03-04 07:07:00,
2013-03-04 01:12:00,59.5,41.4,29.81,South,180,8.0,14.0,51,0.00,,,0.00,meteohub,2013-03-04 07:12:00,
2013-03-04 01:17:00,59.5,41.4,29.81,SW,225,11.0,14.0,51,0.00,,,0.00,meteohub,2013-03-04 07:17:00,
2013-03-04 01:22:00,59.4,41.2,29.81,SE,135,8.0,12.0,51,0.00,,,0.00,meteohub,2013-03-04 07:22:00,
2013-03-04 01:27:00,59.2,41.0,29.80,SW,225,8.0,11.0,51,0.00,,,0.00,meteohub,2013-03-04 07:27:00,
2013-03-04 01:32:00,59.2,41.0,29.80,SW,225,11.0,13.0,51,0.00,,,0.00,meteohub,2013-03-04 07:32:00,
2013-03-04 01:37:00,59.0,40.8,29.80,SW,225,8.0,13.0,51,0.00,,,0.00,meteohub,2013-03-04 07:37:00,
2013-03-04 01:42:00,59.0,40.8,29.80,South,180,5.0,13.0,51,0.00,,,0.00,meteohub,2013-03-04 07:42:00,
2013-03-04 01:47:00,58.8,41.7,29.80,NW,315,11.0,11.0,53,0.00,,,0.00,meteohub,2013-03-04 07:47:00,
2013-03-04 01:52:00,58.6,41.5,29.80,SW,225,4.0,11.0,53,0.00,,,0.00,meteohub,2013-03-04 07:52:00,
2013-03-04 01:57:00,58.6,41.5,29.80,NW,315,5.0,11.0,53,0.00,,,0.00,meteohub,2013-03-04 07:57:00,
2013-03-04 02:02:00,58.5,41.4,29.80,South,180,8.0,11.0,53,0.00,,,0.00,meteohub,2013-03-04 08:02:00,
2013-03-04 02:07:00,58.5,41.4,29.80,South,180,8.0,10.0,53,0.00,,,0.00,meteohub,2013-03-04 08:07:00,
2013-03-04 02:12:00,58.3,41.2,29.80,ESE,113,8.0,10.0,53,0.00,,,0.00,meteohub,2013-03-04 08:12:00,
2013-03-04 02:17:00,58.1,41.0,29.80,SW,225,6.0,8.0,53,0.00,,,0.00,meteohub,2013-03-04 08:17:00,
2013-03-04 02:22:00,57.9,40.8,29.80,West,270,8.0,8.0,53,0.00,,,0.00,meteohub,2013-03-04 08:22:00,
2013-03-04 02:27:00,57.9,40.8,29.79,East,90,8.0,10.0,53,0.00,,,0.00,meteohub,2013-03-04 08:27:00,
2013-03-04 02:32:00,57.9,40.8,29.79,SW,225,10.0,12.0,53,0.00,,,0.00,meteohub,2013-03-04 08:32:00,
2013-03-04 02:37:00,57.7,40.6,29.79,SW,225,6.0,12.0,53,0.00,,,0.00,meteohub,2013-03-04 08:37:00,
2013-03-04 02:42:00,57.7,40.6,29.78,South,180,7.0,12.0,53,0.00,,,0.00,meteohub,2013-03-04 08:42:00,
2013-03-04 02:47:00,57.7,40.6,29.79,SE,135,7.0,10.0,53,0.00,,,0.00,meteohub,2013-03-04 08:47:00,
2013-03-04 02:52:00,57.6,40.6,29.78,South,180,9.0,9.0,53,0.00,,,0.00,meteohub,2013-03-04 08:52:00,
2013-03-04 02:57:00,57.6,40.6,29.78,South,180,12.0,12.0,53,0.00,,,0.00,meteohub,2013-03-04 08:57:00,
2013-03-04 03:02:00,57.6,40.6,29.78,West,270,6.0,12.0,53,0.00,,,0.00,meteohub,2013-03-04 09:02:00,
2013-03-04 03:07:00,57.6,40.6,29.77,SW,225,4.0,12.0,53,0.00,,,0.00,meteohub,2013-03-04 09:07:00,
2013-03-04 03:12:00,57.4,40.5,29.77,South,180,8.0,12.0,53,0.00,,,0.00,meteohub,2013-03-04 09:12:00,
2013-03-04 03:17:00,57.2,40.3,29.78,South,180,8.0,8.0,53,0.00,,,0.00,meteohub,2013-03-04 09:17:00,
2013-03-04 03:22:00,57.2,40.3,29.77,SW,225,6.0,9.0,53,0.00,,,0.00,meteohub,2013-03-04 09:22:00,
2013-03-04 03:27:00,57.0,41.0,29.77,SE,135,8.0,9.0,55,0.00,,,0.00,meteohub,2013-03-04 09:27:00,
2013-03-04 03:32:00,57.0,41.0,29.77,SE,135,5.0,11.0,55,0.00,,,0.00,meteohub,2013-03-04 09:32:00,
2013-03-04 03:37:00,57.0,41.0,29.76,South,180,8.0,12.0,55,0.00,,,0.00,meteohub,2013-03-04 09:37:00,
2013-03-04 03:42:00,57.0,41.0,29.76,SSW,203,8.0,12.0,55,0.00,,,0.00,meteohub,2013-03-04 09:42:00,
2013-03-04 03:47:00,57.0,41.0,29.76,SE,135,5.0,12.0,55,0.00,,,0.00,meteohub,2013-03-04 09:47:00,
2013-03-04 03:52:00,56.8,40.8,29.76,South,180,9.0,9.0,55,0.00,,,0.00,meteohub,2013-03-04 09:52:00,
2013-03-04 03:57:00,56.8,40.8,29.76,South,180,8.0,9.0,55,0.00,,,0.00,meteohub,2013-03-04 09:57:00,
2013-03-04 04:02:00,56.8,40.8,29.76,South,180,7.0,9.0,55,0.00,,,0.00,meteohub,2013-03-04 10:02:00,
2013-03-04 04:07:00,56.8,40.8,29.76,South,180,7.0,9.0,55,0.00,,,0.00,meteohub,2013-03-04 10:07:00,
2013-03-04 04:12:00,56.7,41.2,29.76,South,180,6.0,8.0,56,0.00,,,0.00,meteohub,2013-03-04 10:12:00,
2013-03-04 04:17:00,56.7,41.2,29.76,South,180,11.0,11.0,56,0.00,,,0.00,meteohub,2013-03-04 10:17:00,
2013-03-04 04:22:00,56.7,41.2,29.76,SW,225,4.0,11.0,56,0.00,,,0.00,meteohub,2013-03-04 10:22:00,
2013-03-04 04:27:00,56.7,41.2,29.76,SE,135,5.0,11.0,56,0.00,,,0.00,meteohub,2013-03-04 10:27:00,
2013-03-04 04:32:00,56.7,41.2,29.77,West,270,5.0,11.0,56,0.00,,,0.00,meteohub,2013-03-04 10:32:00,
2013-03-04 04:37:00,56.7,41.2,29.76,SW,225,11.0,11.0,56,0.00,,,0.00,meteohub,2013-03-04 10:37:00,
2013-03-04 04:42:00,56.8,41.4,29.76,South,180,8.0,11.0,56,0.00,,,0.00,meteohub,2013-03-04 10:42:00,
2013-03-04 04:47:00,57.0,41.5,29.76,South,180,8.0,11.0,56,0.00,,,0.00,meteohub,2013-03-04 10:47:00,
2013-03-04 04:52:00,57.2,41.2,29.76,SW,225,9.0,11.0,55,0.00,,,0.00,meteohub,2013-03-04 10:52:00,
2013-03-04 04:57:00,57.4,41.4,29.77,SW,225,8.0,11.0,55,0.00,,,0.00,meteohub,2013-03-04 10:57:00,
2013-03-04 05:02:00,57.4,41.4,29.77,SW,225,2.0,11.0,55,0.00,,,0.00,meteohub,2013-03-04 11:02:00,
2013-03-04 05:07:00,57.4,41.4,29.77,WNW,293,6.0,9.0,55,0.00,,,0.00,meteohub,2013-03-04 11:07:00,
2013-03-04 05:12:00,57.4,41.4,29.76,South,180,6.0,8.0,55,0.00,,,0.00,meteohub,2013-03-04 11:12:00,
2013-03-04 05:17:00,57.4,41.4,29.77,SW,225,6.0,8.0,55,0.00,,,0.00,meteohub,2013-03-04 11:17:00,
2013-03-04 05:22:00,57.4,41.4,29.76,South,180,8.0,8.0,55,0.00,,,0.00,meteohub,2013-03-04 11:22:00,
2013-03-04 05:27:00,57.4,41.4,29.76,SW,225,6.0,11.0,55,0.00,,,0.00,meteohub,2013-03-04 11:27:00,
2013-03-04 05:32:00,57.4,41.4,29.76,SW,225,10.0,11.0,55,0.00,,,0.00,meteohub,2013-03-04 11:32:00,
2013-03-04 05:37:00,57.2,41.7,29.76,West,270,6.0,11.0,56,0.00,,,0.00,meteohub,2013-03-04 11:37:00,
2013-03-04 05:42:00,57.2,41.7,29.75,SW,225,6.0,10.0,56,0.00,,,0.00,meteohub,2013-03-04 11:42:00,
2013-03-04 05:47:00,57.2,41.7,29.76,SW,225,5.0,11.0,56,0.00,,,0.00,meteohub,2013-03-04 11:47:00,
2013-03-04 05:52:00,57.0,41.9,29.75,West,270,7.0,11.0,57,0.00,,,0.00,meteohub,2013-03-04 11:52:00,
2013-03-04 05:57:00,57.0,42.4,29.75,SE,135,4.0,11.0,58,0.00,,,0.00,meteohub,2013-03-04 11:57:00,
2013-03-04 06:02:00,56.8,42.3,29.75,SW,225,5.0,8.0,58,0.00,,,0.00,meteohub,2013-03-04 12:02:00,
2013-03-04 06:07:00,56.8,42.3,29.75,SW,225,5.0,8.0,58,0.00,,,0.00,meteohub,2013-03-04 12:07:00,
2013-03-04 06:12:00,56.8,42.3,29.75,South,180,7.0,8.0,58,0.00,,,0.00,meteohub,2013-03-04 12:12:00,
2013-03-04 06:17:00,56.7,42.1,29.75,NW,315,7.0,8.0,58,0.00,,,0.00,meteohub,2013-03-04 12:17:00,
2013-03-04 06:22:00,56.7,42.1,29.75,SE,135,4.0,8.0,58,0.00,,,0.00,meteohub,2013-03-04 12:22:00,
2013-03-04 06:27:00,56.7,42.1,29.75,SW,225,5.0,10.0,58,0.00,,,0.00,meteohub,2013-03-04 12:27:00,
2013-03-04 06:32:00,56.7,42.4,29.75,SW,225,7.0,10.0,59,0.00,,,0.00,meteohub,2013-03-04 12:32:00,
2013-03-04 06:37:00,56.7,42.4,29.75,NNE,23,4.0,10.0,59,0.00,,,0.00,meteohub,2013-03-04 12:37:00,
2013-03-04 06:42:00,56.7,42.4,29.75,NW,315,7.0,7.0,59,0.00,,,0.00,meteohub,2013-03-04 12:42:00,
2013-03-04 06:47:00,56.7,42.4,29.76,SW,225,7.0,7.0,59,0.00,,,0.00,meteohub,2013-03-04 12:47:00,
2013-03-04 06:52:00,56.7,42.4,29.76,West,270,4.0,8.0,59,0.00,,,0.00,meteohub,2013-03-04 12:52:00,
2013-03-04 06:57:00,56.5,42.3,29.76,South,180,5.0,8.0,59,0.00,,,0.00,meteohub,2013-03-04 12:57:00,
2013-03-04 07:02:00,56.3,42.1,29.75,South,180,4.0,7.0,59,0.00,,,0.00,meteohub,2013-03-04 13:02:00,
2013-03-04 07:07:00,56.3,42.1,29.75,SE,135,8.0,9.0,59,0.00,,,0.00,meteohub,2013-03-04 13:07:00,
2013-03-04 07:12:00,56.3,42.1,29.75,South,180,4.0,9.0,59,0.00,,,0.00,meteohub,2013-03-04 13:12:00,
2013-03-04 07:17:00,56.3,42.1,29.75,SSW,203,6.0,9.0,59,0.00,,,0.00,meteohub,2013-03-04 13:17:00,
2013-03-04 07:22:00,56.3,42.1,29.75,SSW,203,7.0,10.0,59,0.00,,,0.00,meteohub,2013-03-04 13:22:00,
2013-03-04 07:27:00,56.5,42.3,29.75,SW,225,4.0,10.0,59,0.00,,,0.00,meteohub,2013-03-04 13:27:00,
2013-03-04 07:32:00,56.5,42.3,29.75,NW,315,4.0,10.0,59,0.00,,,0.00,meteohub,2013-03-04 13:32:00,
2013-03-04 07:37:00,56.5,42.3,29.75,SW,225,5.0,8.0,59,0.00,,,0.00,meteohub,2013-03-04 13:37:00,
2013-03-04 07:42:00,56.5,42.3,29.75,SW,225,8.0,8.0,59,0.00,,,0.00,meteohub,2013-03-04 13:42:00,
2013-03-04 07:47:00,56.7,42.4,29.75,South,180,8.0,8.0,59,0.00,,,0.00,meteohub,2013-03-04 13:47:00,
2013-03-04 07:52:00,56.8,42.3,29.75,NE,45,8.0,9.0,58,0.00,,,0.00,meteohub,2013-03-04 13:52:00,
2013-03-04 07:57:00,57.9,42.3,29.75,South,180,8.0,9.0,56,0.00,,,0.00,meteohub,2013-03-04 13:57:00,
2013-03-04 08:02:00,58.3,42.3,29.75,SW,225,5.0,14.0,55,0.00,,,0.00,meteohub,2013-03-04 14:02:00,
2013-03-04 08:07:00,58.3,42.3,29.75,SW,225,6.0,14.0,55,0.00,,,0.00,meteohub,2013-03-04 14:07:00,
2013-03-04 08:12:00,58.5,42.4,29.75,SW,225,4.0,14.0,55,0.00,,,0.00,meteohub,2013-03-04 14:12:00,
2013-03-04 08:17:00,58.5,42.4,29.74,East,90,4.0,11.0,55,0.00,,,0.00,meteohub,2013-03-04 14:17:00,
2013-03-04 08:22:00,58.6,42.4,29.74,West,270,6.0,11.0,55,0.00,,,0.00,meteohub,2013-03-04 14:22:00,
2013-03-04 08:27:00,58.8,42.6,29.74,SSW,203,4.0,11.0,55,0.00,,,0.00,meteohub,2013-03-04 14:27:00,
2013-03-04 08:32:00,59.0,41.9,29.74,SW,225,9.0,15.0,53,0.00,,,0.00,meteohub,2013-03-04 14:32:00,
2013-03-04 08:37:00,59.2,42.1,29.75,SW,225,10.0,15.0,53,0.00,,,0.00,meteohub,2013-03-04 14:37:00,
2013-03-04 08:42:00,59.5,41.9,29.75,West,270,8.0,15.0,52,0.00,,,0.00,meteohub,2013-03-04 14:42:00,
2013-03-04 08:47:00,59.5,41.9,29.75,South,180,9.0,15.0,52,0.00,,,0.00,meteohub,2013-03-04 14:47:00,
2013-03-04 08:52:00,59.7,42.1,29.74,SW,225,7.0,11.0,52,0.00,,,0.00,meteohub,2013-03-04 14:52:00,
2013-03-04 08:57:00,60.1,42.4,29.75,SW,225,8.0,13.0,52,0.00,,,0.00,meteohub,2013-03-04 14:57:00,
2013-03-04 09:02:00,60.3,42.6,29.74,SW,225,4.0,13.0,52,0.00,,,0.00,meteohub,2013-03-04 15:02:00,
2013-03-04 09:07:00,60.6,42.4,29.74,SW,225,7.0,13.0,51,0.00,,,0.00,meteohub,2013-03-04 15:07:00,
2013-03-04 09:12:00,61.2,42.4,29.75,SE,135,10.0,11.0,50,0.00,,,0.00,meteohub,2013-03-04 15:12:00,
2013-03-04 09:17:00,61.3,42.1,29.75,SW,225,4.0,11.0,49,0.00,,,0.00,meteohub,2013-03-04 15:17:00,
2013-03-04 09:22:00,61.5,42.3,29.75,SW,225,4.0,11.0,49,0.00,,,0.00,meteohub,2013-03-04 15:22:00,
2013-03-04 09:27:00,61.7,42.3,29.75,SW,225,5.0,10.0,49,0.00,,,0.00,meteohub,2013-03-04 15:27:00,
2013-03-04 09:32:00,63.0,41.4,29.75,SW,225,4.0,8.0,45,0.00,,,0.00,meteohub,2013-03-04 15:32:00,
2013-03-04 09:37:00,64.0,41.7,29.75,SW,225,4.0,8.0,44,0.00,,,0.00,meteohub,2013-03-04 15:37:00,
2013-03-04 09:42:00,64.8,41.7,29.74,West,270,5.0,8.0,43,0.00,,,0.00,meteohub,2013-03-04 15:42:00,
2013-03-04 09:47:00,65.3,41.5,29.75,North,0,6.0,8.0,42,0.00,,,0.00,meteohub,2013-03-04 15:47:00,
2013-03-04 09:52:00,65.3,41.5,29.74,West,270,8.0,11.0,42,0.00,,,0.00,meteohub,2013-03-04 15:52:00,
2013-03-04 09:57:00,65.7,41.4,29.74,South,180,8.0,11.0,41,0.00,,,0.00,meteohub,2013-03-04 15:57:00,
2013-03-04 10:02:00,66.2,41.2,29.74,SW,225,11.0,12.0,40,0.00,,,0.00,meteohub,2013-03-04 16:02:00,
2013-03-04 10:07:00,66.4,39.9,29.74,NW,315,4.0,12.0,38,0.00,,,0.00,meteohub,2013-03-04 16:07:00,
2013-03-04 10:12:00,67.1,39.2,29.74,West,270,4.0,12.0,36,0.00,,,0.00,meteohub,2013-03-04 16:12:00,
2013-03-04 10:17:00,67.6,39.0,29.74,SW,225,11.0,11.0,35,0.00,,,0.00,meteohub,2013-03-04 16:17:00,
2013-03-04 10:22:00,67.6,39.0,29.74,SW,225,11.0,11.0,35,0.00,,,0.00,meteohub,2013-03-04 16:22:00,
2013-03-04 10:27:00,68.5,37.6,29.74,SW,225,4.0,11.0,32,0.00,,,0.00,meteohub,2013-03-04 16:27:00,
2013-03-04 10:32:00,68.7,36.9,29.74,SW,225,4.0,11.0,31,0.00,,,0.00,meteohub,2013-03-04 16:32:00,
2013-03-04 10:37:00,69.4,36.7,29.74,SW,225,7.0,13.0,30,0.00,,,0.00,meteohub,2013-03-04 16:37:00,
2013-03-04 10:42:00,70.5,36.7,29.74,NW,315,8.0,13.0,29,0.00,,,0.00,meteohub,2013-03-04 16:42:00,
2013-03-04 10:47:00,71.4,35.8,29.74,NW,315,11.0,13.0,27,0.00,,,0.00,meteohub,2013-03-04 16:47:00,
2013-03-04 10:52:00,72.0,33.3,29.74,South,180,5.0,15.0,24,0.00,,,0.00,meteohub,2013-03-04 16:52:00,
2013-03-04 10:57:00,72.5,33.6,29.74,West,270,10.0,15.0,24,0.00,,,0.00,meteohub,2013-03-04 16:57:00,
2013-03-04 11:02:00,72.1,32.4,29.73,SW,225,8.0,15.0,23,0.00,,,0.00,meteohub,2013-03-04 17:02:00,
2013-03-04 11:07:00,73.2,34.3,29.73,West,270,6.0,13.0,24,0.00,,,0.00,meteohub,2013-03-04 17:07:00,
2013-03-04 11:12:00,74.5,35.2,29.74,SW,225,7.0,13.0,24,0.00,,,0.00,meteohub,2013-03-04 17:12:00,
2013-03-04 11:17:00,74.7,35.4,29.73,SW,225,9.0,13.0,24,0.00,,,0.00,meteohub,2013-03-04 17:17:00,
2013-03-04 11:22:00,74.7,34.3,29.74,SW,225,8.0,10.0,23,0.00,,,0.00,meteohub,2013-03-04 17:22:00,
2013-03-04 11:27:00,75.2,33.8,29.74,SW,225,4.0,11.0,22,0.00,,,0.00,meteohub,2013-03-04 17:27:00,
2013-03-04 11:32:00,76.5,34.9,29.73,SW,225,4.0,11.0,22,0.00,,,0.00,meteohub,2013-03-04 17:32:00,
2013-03-04 11:37:00,77.4,33.1,29.73,South,180,5.0,10.0,20,0.00,,,0.00,meteohub,2013-03-04 17:37:00,
2013-03-04 11:42:00,78.3,34.0,29.73,SE,135,8.0,10.0,20,0.00,,,0.00,meteohub,2013-03-04 17:42:00,
2013-03-04 11:47:00,78.8,33.1,29.73,SW,225,8.0,10.0,19,0.00,,,0.00,meteohub,2013-03-04 17:47:00,
2013-03-04 11:52:00,79.2,30.6,29.73,SW,225,5.0,8.0,17,0.00,,,0.00,meteohub,2013-03-04 17:52:00,
2013-03-04 11:57:00,79.5,30.9,29.72,West,270,3.0,8.0,17,0.00,,,0.00,meteohub,2013-03-04 17:57:00,
2013-03-04 12:02:00,80.1,32.7,29.72,SW,225,8.0,10.0,18,0.00,,,0.00,meteohub,2013-03-04 18:02:00,
2013-03-04 12:07:00,80.1,32.7,29.71,SW,225,8.0,10.0,18,0.00,,,0.00,meteohub,2013-03-04 18:07:00,
2013-03-04 12:12:00,80.8,27.1,29.72,West,270,5.0,11.0,14,0.00,,,0.00,meteohub,2013-03-04 18:12:00,
2013-03-04 12:17:00,81.5,27.7,29.71,West,270,8.0,11.0,14,0.00,,,0.00,meteohub,2013-03-04 18:17:00,
2013-03-04 12:22:00,81.9,26.2,29.71,SW,225,6.0,11.0,13,0.00,,,0.00,meteohub,2013-03-04 18:22:00,
2013-03-04 12:27:00,81.9,24.3,29.70,NNW,338,9.0,14.0,12,0.00,,,0.00,meteohub,2013-03-04 18:27:00,
2013-03-04 12:29:00,82.0,26.4,29.70,SW,225,4.0,14.0,13,0.00,,,0.00,meteohub,2013-03-04 18:29:00,
2013-03-04 12:30:00,82.2,26.4,29.70,SW,225,4.0,14.0,13,0.00,,,0.00,meteohub,2013-03-04 18:30:00,
2013-03-04 12:35:00,82.8,30.4,29.70,NW,315,7.0,14.0,15,0.00,,,0.00,meteohub,2013-03-04 18:35:00,
2013-03-04 12:40:00,83.7,29.5,29.70,West,270,4.0,11.0,14,0.00,,,0.00,meteohub,2013-03-04 18:40:00,
2013-03-04 12:45:00,83.8,29.5,29.69,SE,135,8.0,11.0,14,0.00,,,0.00,meteohub,2013-03-04 18:45:00,
2013-03-04 12:50:00,83.5,27.5,29.69,West,270,10.0,10.0,13,0.00,,,0.00,meteohub,2013-03-04 18:50:00,
2013-03-04 12:55:00,83.3,27.3,29.69,West,270,11.0,14.0,13,0.00,,,0.00,meteohub,2013-03-04 18:55:00,
2013-03-04 13:00:00,83.1,27.1,29.69,South,180,8.0,14.0,13,0.00,,,0.00,meteohub,2013-03-04 19:00:00,
2013-03-04 13:05:00,83.7,27.7,29.69,West,270,7.0,14.0,13,0.00,,,0.00,meteohub,2013-03-04 19:05:00,
2013-03-04 13:11:00,84.4,26.2,29.68,SW,225,7.0,11.0,12,0.00,,,0.00,meteohub,2013-03-04 19:11:00,
2013-03-04 13:16:00,85.1,28.8,29.68,West,270,10.0,10.0,13,0.00,,,0.00,meteohub,2013-03-04 19:16:00,
2013-03-04 13:21:00,85.5,28.9,29.68,South,180,6.0,10.0,13,0.00,,,0.00,meteohub,2013-03-04 19:21:00,
2013-03-04 13:26:00,85.6,27.1,29.68,SW,225,5.0,10.0,12,0.00,,,0.00,meteohub,2013-03-04 19:26:00,
2013-03-04 13:31:00,85.6,27.1,29.67,SW,225,9.0,12.0,12,0.00,,,0.00,meteohub,2013-03-04 19:31:00,
2013-03-04 13:36:00,85.5,27.1,29.67,SW,225,7.0,12.0,12,0.00,,,0.00,meteohub,2013-03-04 19:36:00,
2013-03-04 13:41:00,85.6,27.1,29.67,North,0,12.0,12.0,12,0.00,,,0.00,meteohub,2013-03-04 19:41:00,
2013-03-04 13:46:00,85.6,29.1,29.67,SW,225,4.0,12.0,13,0.00,,,0.00,meteohub,2013-03-04 19:46:00,
2013-03-04 13:51:00,85.6,29.1,29.67,West,270,10.0,12.0,13,0.00,,,0.00,meteohub,2013-03-04 19:51:00,
2013-03-04 13:56:00,85.6,29.1,29.66,West,270,10.0,12.0,13,0.00,,,0.00,meteohub,2013-03-04 19:56:00,
2013-03-04 14:01:00,85.6,27.1,29.66,SW,225,7.0,10.0,12,0.00,,,0.00,meteohub,2013-03-04 20:01:00,
2013-03-04 14:06:00,85.6,27.1,29.66,SW,225,7.0,11.0,12,0.00,,,0.00,meteohub,2013-03-04 20:06:00,
2013-03-04 14:11:00,86.4,25.7,29.66,SW,225,7.0,12.0,11,0.00,,,0.00,meteohub,2013-03-04 20:11:00,
2013-03-04 14:16:00,86.5,25.9,29.66,SW,225,5.0,15.0,11,0.00,,,0.00,meteohub,2013-03-04 20:16:00,
2013-03-04 14:21:00,86.2,25.5,29.66,South,180,3.0,15.0,11,0.00,,,0.00,meteohub,2013-03-04 20:21:00,
2013-03-04 14:26:00,86.4,25.7,29.65,SW,225,8.0,14.0,11,0.00,,,0.00,meteohub,2013-03-04 20:26:00,
2013-03-04 14:31:00,86.4,25.7,29.65,SW,225,8.0,15.0,11,0.00,,,0.00,meteohub,2013-03-04 20:31:00,
2013-03-04 14:36:00,86.7,25.9,29.65,SW,225,5.0,15.0,11,0.00,,,0.00,meteohub,2013-03-04 20:36:00,
2013-03-04 14:41:00,87.1,26.2,29.65,SW,225,7.0,15.0,11,0.00,,,0.00,meteohub,2013-03-04 20:41:00,
2013-03-04 14:46:00,87.3,26.4,29.65,West,270,9.0,12.0,11,0.00,,,0.00,meteohub,2013-03-04 20:46:00,
2013-03-04 14:51:00,87.1,23.9,29.65,West,270,8.0,20.0,10,0.00,,,0.00,meteohub,2013-03-04 20:51:00,
2013-03-04 14:56:00,87.3,24.1,29.65,SW,225,4.0,20.0,10,0.00,,,0.00,meteohub,2013-03-04 20:56:00,
2013-03-04 15:01:00,87.4,24.3,29.65,West,270,8.0,20.0,10,0.00,,,0.00,meteohub,2013-03-04 21:01:00,
2013-03-04 15:06:00,87.6,24.3,29.65,West,270,7.0,11.0,10,0.00,,,0.00,meteohub,2013-03-04 21:06:00,
2013-03-04 15:11:00,87.8,26.8,29.65,West,270,10.0,11.0,11,0.00,,,0.00,meteohub,2013-03-04 21:11:00,
2013-03-04 15:16:00,87.4,24.3,29.65,West,270,14.0,14.0,10,0.00,,,0.00,meteohub,2013-03-04 21:16:00,
2013-03-04 15:21:00,87.3,24.1,29.65,SW,225,9.0,14.0,10,0.00,,,0.00,meteohub,2013-03-04 21:21:00,
2013-03-04 15:26:00,87.4,28.6,29.65,West,270,9.0,14.0,12,0.00,,,0.00,meteohub,2013-03-04 21:26:00,
2013-03-04 15:31:00,87.3,28.4,29.64,West,270,7.0,14.0,12,0.00,,,0.00,meteohub,2013-03-04 21:31:00,
2013-03-04 15:36:00,87.6,28.8,29.64,West,270,5.0,12.0,12,0.00,,,0.00,meteohub,2013-03-04 21:36:00,
2013-03-04 15:41:00,88.0,27.0,29.63,NW,315,8.0,12.0,11,0.00,,,0.00,meteohub,2013-03-04 21:41:00,
2013-03-04 15:46:00,87.8,24.4,29.64,WNW,293,8.0,10.0,10,0.00,,,0.00,meteohub,2013-03-04 21:46:00,
2013-03-04 15:51:00,87.8,24.4,29.63,SW,225,8.0,14.0,10,0.00,,,0.00,meteohub,2013-03-04 21:51:00,
2013-03-04 15:56:00,87.6,28.8,29.63,SW,225,4.0,14.0,12,0.00,,,0.00,meteohub,2013-03-04 21:56:00,
2013-03-04 16:01:00,88.0,24.6,29.63,West,270,6.0,14.0,10,0.00,,,0.00,meteohub,2013-03-04 22:01:00,
2013-03-04 16:06:00,88.0,24.6,29.63,West,270,6.0,12.0,10,0.00,,,0.00,meteohub,2013-03-04 22:06:00,
2013-03-04 16:11:00,88.2,24.8,29.63,South,180,14.0,14.0,10,0.00,,,0.00,meteohub,2013-03-04 22:11:00,
2013-03-04 16:16:00,87.6,26.6,29.63,WSW,248,9.0,14.0,11,0.00,,,0.00,meteohub,2013-03-04 22:16:00,
2013-03-04 16:21:00,87.3,28.4,29.63,SW,225,10.0,14.0,12,0.00,,,0.00,meteohub,2013-03-04 22:21:00,
2013-03-04 16:26:00,87.3,28.4,29.63,SW,225,8.0,14.0,12,0.00,,,0.00,meteohub,2013-03-04 22:26:00,
2013-03-04 16:31:00,87.1,28.4,29.63,West,270,9.0,16.0,12,0.00,,,0.00,meteohub,2013-03-04 22:31:00,
2013-03-04 16:36:00,87.1,28.4,29.63,West,270,9.0,16.0,12,0.00,,,0.00,meteohub,2013-03-04 22:36:00,
2013-03-04 16:41:00,87.1,28.4,29.63,West,270,9.0,16.0,12,0.00,,,0.00,meteohub,2013-03-04 22:41:00,
2013-03-04 16:46:00,86.9,28.2,29.62,West,270,8.0,9.0,12,0.00,,,0.00,meteohub,2013-03-04 22:46:00,
2013-03-04 16:51:00,86.9,28.2,29.63,West,270,8.0,9.0,12,0.00,,,0.00,meteohub,2013-03-04 22:51:00,
2013-03-04 16:56:00,86.9,28.2,29.63,West,270,8.0,8.0,12,0.00,,,0.00,meteohub,2013-03-04 22:56:00,
2013-03-04 17:01:00,86.5,27.9,29.62,North,-999,-999.0,8.0,12,0.00,,,0.00,meteohub,2013-03-04 23:01:00,
2013-03-04 17:06:00,86.5,27.9,29.63,North,-999,-999.0,8.0,12,0.00,,,0.00,meteohub,2013-03-04 23:06:00,
2013-03-04 17:11:00,86.5,27.9,29.63,North,-999,-999.0,-999.0,12,0.00,,,0.00,meteohub,2013-03-04 23:11:00,
2013-03-04 17:17:00,86.9,28.2,29.63,West,270,9.0,-999.0,12,0.00,,,0.00,meteohub,2013-03-04 23:17:00,
2013-03-04 17:22:00,86.7,28.0,29.62,SW,225,6.0,9.0,12,0.00,,,0.00,meteohub,2013-03-04 23:22:00,
2013-03-04 17:27:00,86.4,29.7,29.63,South,180,6.0,9.0,13,0.00,,,0.00,meteohub,2013-03-04 23:27:00,
2013-03-04 17:32:00,86.0,29.5,29.63,SW,225,8.0,10.0,13,0.00,,,0.00,meteohub,2013-03-04 23:32:00,
2013-03-04 17:37:00,85.5,30.9,29.64,South,180,8.0,10.0,14,0.00,,,0.00,meteohub,2013-03-04 23:37:00,
2013-03-04 17:42:00,85.1,30.6,29.64,SW,225,3.0,10.0,14,0.00,,,0.00,meteohub,2013-03-04 23:42:00,
2013-03-04 17:47:00,84.7,30.2,29.63,SW,225,4.0,10.0,14,0.00,,,0.00,meteohub,2013-03-04 23:47:00,
2013-03-04 17:52:00,84.4,30.0,29.64,SW,225,6.0,10.0,14,0.00,,,0.00,meteohub,2013-03-04 23:52:00,
2013-03-04 17:57:00,83.8,32.9,29.64,South,180,6.0,10.0,16,0.00,,,0.00,meteohub,2013-03-04 23:57:00,
2013-03-04 18:02:00,83.7,32.7,29.64,SW,225,8.0,10.0,16,0.00,,,0.00,meteohub,2013-03-05 00:02:00,
2013-03-04 18:07:00,83.1,32.4,29.64,SE,135,4.0,9.0,16,0.00,,,0.00,meteohub,2013-03-05 00:07:00,
2013-03-04 18:12:00,82.8,32.0,29.64,SE,135,3.0,9.0,16,0.00,,,0.00,meteohub,2013-03-05 00:12:00,
2013-03-04 18:17:00,82.2,28.2,29.65,SW,225,4.0,8.0,14,0.00,,,0.00,meteohub,2013-03-05 00:17:00,
2013-03-04 18:22:00,81.7,27.9,29.65,SW,225,2.0,4.0,14,0.00,,,0.00,meteohub,2013-03-05 00:22:00,
2013-03-04 18:27:00,81.1,27.5,29.65,SW,225,1.0,4.0,14,0.00,,,0.00,meteohub,2013-03-05 00:27:00,
2013-03-04 18:32:00,80.4,26.8,29.65,South,180,2.0,4.0,14,0.00,,,0.00,meteohub,2013-03-05 00:32:00,
2013-03-04 18:37:00,80.1,26.6,29.65,South,180,1.0,2.0,14,0.00,,,0.00,meteohub,2013-03-05 00:37:00,
2013-03-04 18:42:00,79.3,27.7,29.65,South,180,0.0,2.0,15,0.00,,,0.00,meteohub,2013-03-05 00:42:00,
2013-03-04 18:47:00,78.8,27.3,29.65,South,180,2.0,2.0,15,0.00,,,0.00,meteohub,2013-03-05 00:47:00,
2013-03-04 18:52:00,78.3,29.8,29.66,SW,225,2.0,2.0,17,0.00,,,0.00,meteohub,2013-03-05 00:52:00,
2013-03-04 18:57:00,77.7,30.9,29.65,SW,225,1.0,2.0,18,0.00,,,0.00,meteohub,2013-03-05 00:57:00,
2013-03-04 19:02:00,77.4,30.6,29.66,South,180,3.0,3.0,18,0.00,,,0.00,meteohub,2013-03-05 01:02:00,
2013-03-04 19:07:00,77.4,31.8,29.66,South,180,2.0,3.0,19,0.00,,,0.00,meteohub,2013-03-05 01:07:00,
2013-03-04 19:12:00,77.2,33.1,29.66,SW,225,2.0,3.0,20,0.00,,,0.00,meteohub,2013-03-05 01:12:00,
2013-03-04 19:17:00,76.8,34.0,29.67,South,180,2.0,3.0,21,0.00,,,0.00,meteohub,2013-03-05 01:17:00,
2013-03-04 19:22:00,76.5,33.6,29.67,SW,225,4.0,4.0,21,0.00,,,0.00,meteohub,2013-03-05 01:22:00,
2013-03-04 19:27:00,76.3,35.8,29.67,SE,135,7.0,7.0,23,0.00,,,0.00,meteohub,2013-03-05 01:27:00,
2013-03-04 19:32:00,76.1,35.6,29.67,South,180,2.0,7.0,23,0.00,,,0.00,meteohub,2013-03-05 01:32:00,
2013-03-04 19:37:00,75.7,36.3,29.67,SW,225,4.0,7.0,24,0.00,,,0.00,meteohub,2013-03-05 01:37:00,
2013-03-04 19:42:00,75.4,37.0,29.67,SW,225,2.0,7.0,25,0.00,,,0.00,meteohub,2013-03-05 01:42:00,
2013-03-04 19:47:00,75.2,37.9,29.67,SE,135,3.0,4.0,26,0.00,,,0.00,meteohub,2013-03-05 01:47:00,
2013-03-04 19:52:00,74.8,40.5,29.68,SE,135,3.0,4.0,29,0.00,,,0.00,meteohub,2013-03-05 01:52:00,
2013-03-04 19:57:00,74.5,41.9,29.67,SE,135,3.0,4.0,31,0.00,,,0.00,meteohub,2013-03-05 01:57:00,
2013-03-04 20:02:00,74.3,43.3,29.68,South,180,3.0,6.0,33,0.00,,,0.00,meteohub,2013-03-05 02:02:00,
2013-03-04 20:07:00,74.1,43.2,29.68,SE,135,3.0,9.0,33,0.00,,,0.00,meteohub,2013-03-05 02:07:00,
2013-03-04 20:12:00,73.8,43.7,29.68,SW,225,3.0,9.0,34,0.00,,,0.00,meteohub,2013-03-05 02:12:00,
2013-03-04 20:17:00,73.8,43.7,29.68,SW,225,6.0,7.0,34,0.00,,,0.00,meteohub,2013-03-05 02:17:00,
2013-03-04 20:22:00,73.8,43.7,29.68,SW,225,6.0,6.0,34,0.00,,,0.00,meteohub,2013-03-05 02:22:00,
2013-03-04 20:27:00,73.4,44.8,29.68,South,180,3.0,6.0,36,0.00,,,0.00,meteohub,2013-03-05 02:27:00,
2013-03-04 20:32:00,73.2,44.6,29.68,South,180,5.0,6.0,36,0.00,,,0.00,meteohub,2013-03-05 02:32:00,
2013-03-04 20:37:00,72.9,44.4,29.68,SE,135,2.0,6.0,36,0.00,,,0.00,meteohub,2013-03-05 02:37:00,
2013-03-04 20:42:00,72.5,44.1,29.69,SE,135,3.0,6.0,36,0.00,,,0.00,meteohub,2013-03-05 02:42:00,
2013-03-04 20:47:00,72.3,44.6,29.68,South,180,3.0,5.0,37,0.00,,,0.00,meteohub,2013-03-05 02:47:00,
2013-03-04 20:52:00,72.1,45.1,29.69,West,270,4.0,6.0,38,0.00,,,0.00,meteohub,2013-03-05 02:52:00,
2013-03-04 20:57:00,72.1,45.1,29.69,SW,225,4.0,6.0,38,0.00,,,0.00,meteohub,2013-03-05 02:57:00,
2013-03-04 21:02:00,71.8,45.5,29.69,SE,135,6.0,6.0,39,0.00,,,0.00,meteohub,2013-03-05 03:02:00,
2013-03-04 21:07:00,71.6,45.3,29.69,SW,225,3.0,6.0,39,0.00,,,0.00,meteohub,2013-03-05 03:07:00,
2013-03-04 21:12:00,71.4,46.6,29.69,SW,225,2.0,6.0,41,0.00,,,0.00,meteohub,2013-03-05 03:12:00,
2013-03-04 21:17:00,71.2,46.4,29.69,SW,225,4.0,6.0,41,0.00,,,0.00,meteohub,2013-03-05 03:17:00,
2013-03-04 21:22:00,71.1,46.8,29.69,South,180,2.0,4.0,42,0.00,,,0.00,meteohub,2013-03-05 03:22:00,
2013-03-04 21:27:00,70.7,46.4,29.69,SW,225,3.0,4.0,42,0.00,,,0.00,meteohub,2013-03-05 03:27:00,
2013-03-04 21:32:00,70.5,46.9,29.69,SW,225,3.0,4.0,43,0.00,,,0.00,meteohub,2013-03-05 03:32:00,
2013-03-04 21:37:00,70.3,46.8,29.69,South,180,2.0,4.0,43,0.00,,,0.00,meteohub,2013-03-05 03:37:00,
2013-03-04 21:42:00,70.0,46.4,29.70,South,180,4.0,4.0,43,0.00,,,0.00,meteohub,2013-03-05 03:42:00,
2013-03-04 21:47:00,69.6,47.3,29.69,SW,225,2.0,4.0,45,0.00,,,0.00,meteohub,2013-03-05 03:47:00,
2013-03-04 21:52:00,69.4,47.1,29.69,North,0,2.0,4.0,45,0.00,,,0.00,meteohub,2013-03-05 03:52:00,
2013-03-04 21:57:00,69.3,46.9,29.71,North,0,5.0,5.0,45,0.00,,,0.00,meteohub,2013-03-05 03:57:00,
2013-03-04 22:02:00,69.1,48.0,29.72,NW,315,6.0,7.0,47,0.00,,,0.00,meteohub,2013-03-05 04:02:00,
2013-03-04 22:07:00,69.1,48.0,29.72,NW,315,6.0,7.0,47,0.00,,,0.00,meteohub,2013-03-05 04:07:00,
2013-03-04 22:12:00,69.3,46.4,29.73,North,0,8.0,8.0,44,0.00,,,0.00,meteohub,2013-03-05 04:12:00,
2013-03-04 22:17:00,69.3,45.1,29.72,North,0,2.0,8.0,42,0.00,,,0.00,meteohub,2013-03-05 04:17:00,
2013-03-04 22:22:00,69.3,45.1,29.73,SW,225,2.0,8.0,42,0.00,,,0.00,meteohub,2013-03-05 04:22:00,
2013-03-04 22:27:00,69.3,45.1,29.73,NW,315,2.0,8.0,42,0.00,,,0.00,meteohub,2013-03-05 04:27:00,
2013-03-04 22:32:00,68.9,44.8,29.73,NW,315,2.0,4.0,42,0.00,,,0.00,meteohub,2013-03-05 04:32:00,
2013-03-04 22:37:00,69.3,43.9,29.74,NNW,338,5.0,8.0,40,0.00,,,0.00,meteohub,2013-03-05 04:37:00,
2013-03-04 22:42:00,69.3,41.2,29.75,North,0,7.0,8.0,36,0.00,,,0.00,meteohub,2013-03-05 04:42:00,
2013-03-04 22:47:00,68.9,39.4,29.76,North,0,11.0,11.0,34,0.00,,,0.00,meteohub,2013-03-05 04:47:00,
2013-03-04 22:52:00,68.5,39.7,29.76,North,0,8.0,12.0,35,0.00,,,0.00,meteohub,2013-03-05 04:52:00,
2013-03-04 22:57:00,68.0,39.4,29.77,North,0,5.0,15.0,35,0.00,,,0.00,meteohub,2013-03-05 04:57:00,
2013-03-04 23:00:00,68.0,40.1,29.78,NW,315,8.0,15.0,36,0.00,,,0.00,meteohub,2013-03-05 05:00:00,
2013-03-04 23:02:00,67.8,40.6,29.78,West,270,10.0,15.0,37,0.00,,,0.00,meteohub,2013-03-05 05:02:00,
2013-03-04 23:07:00,67.5,41.0,29.79,NE,45,11.0,15.0,38,0.00,,,0.00,meteohub,2013-03-05 05:07:00,
2013-03-04 23:12:00,66.9,41.9,29.79,NW,315,11.0,19.0,40,0.00,,,0.00,meteohub,2013-03-05 05:12:00,
2013-03-04 23:17:00,66.0,42.3,29.80,North,0,14.0,19.0,42,0.00,,,0.00,meteohub,2013-03-05 05:17:00,
2013-03-04 23:22:00,65.3,42.8,29.81,North,0,14.0,19.0,44,0.00,,,0.00,meteohub,2013-03-05 05:22:00,
2013-03-04 23:27:00,64.4,42.6,29.81,WSW,248,14.0,25.0,45,0.00,,,0.00,meteohub,2013-03-05 05:27:00,
2013-03-04 23:32:00,63.7,43.7,29.81,NNW,338,22.0,25.0,48,0.00,,,0.00,meteohub,2013-03-05 05:32:00,
2013-03-04 23:37:00,62.8,43.3,29.83,North,0,17.0,25.0,49,0.00,,,0.00,meteohub,2013-03-05 05:37:00,
2013-03-04 23:42:00,61.7,43.3,29.84,NW,315,12.0,22.0,51,0.00,,,0.00,meteohub,2013-03-05 05:42:00,
2013-03-04 23:47:00,60.4,43.2,29.84,North,0,15.0,22.0,53,0.00,,,0.00,meteohub,2013-03-05 05:47:00,
2013-03-04 23:52:00,59.4,42.8,29.85,North,0,10.0,21.0,54,0.00,,,0.00,meteohub,2013-03-05 05:52:00,
2013-03-04 23:57:00,58.6,43.0,29.86,North,0,17.0,17.0,56,0.00,,,0.00,meteohub,2013-03-05 05:57:00,